Wind_Speed
7 6 5 3 2 1 1 1 1 2 2 2 3 3 4 4 5 5 6 6 6 6 6 6 6 6 6 6 6 6 4 4
5 4 4 3 1 1 1 1 1 2 3 3 4 6 6 5 6 6 5 6 7 7 7 7 8 8 8 7 6 6 5 6
6 4 3 2 1 2 1 3 2 3 5 5 5 3 4 5 7 7 8 9 10 10 9 9 9 10 9 8 8 6 7 7
9 8 5 2 2 2 2 2 1 2 3 4 5 5 5 7 7 10 11 11 11 11 12 11 8 6 7 9 6 7 8 8
9 7 5 3 3 2 3 3 3 4 5 5 6 7 8 8 8 9 9 11 9 11 10 9 8 8 9 9 8 8 8 7
9 8 6 5 4 3 4 4 5 5 6 7 7 8 9 9 10 11 11 11 12 11 11 10 9 8 8 8 7 7 6 6
11 9 8 6 5 4 4 5 5 5 7 8 8 8 9 10 11 12 12 12 12 12 13 12 11 9 8 8 7 6 5 5
11 11 11 8 5 4 3 3 4 5 5 7 8 8 9 10 11 12 12 12 12 12 13 13 12 11 10 9 9 8 7 7
12 12 11 8 5 4 3 3 3 4 4 6 8 9 10 12 12 13 13 13 14 13 13 13 13 13 12 12 11 10 9 9
12 13 10 7 5 4 4 4 3 4 5 7 8 10 12 14 15 15 15 16 16 16 16 16 16 15 15 14 14 12 11 11
12 11 9 6 4 4 5 5 4 5 6 8 10 12 13 15 18 19 17 18 18 18 19 19 19 18 17 17 17 16 15 14
8 7 4 2 3 4 5 5 6 6 7 8 10 12 13 14 17 20 19 20 22 22 22 22 23 23 22 20 20 19 18 18
4 4 3 1 2 4 5 5 8 9 9 10 13 13 15 16 18 19 20 21 23 24 25 26 26 26 23 24 25 23 23 23
6 5 5 4 3 4 5 8 7 10 8 13 13 16 16 16 17 19 21 22 22 23 24 26 28 27 26 24 14 22 25 24
8 9 9 9 7 6 6 7 9 9 14 15 17 18 18 18 19 20 21 22 24 24 24 26 27 28 29 22 11 15 17 22
11 10 9 9 10 8 8 8 10 11 13 15 20 20 21 22 22 21 21 22 23 23 23 24 25 29 26 29 34 31 16 12
8 8 9 8 7 9 10 10 11 13 16 19 21 21 22 23 22 21 21 19 19 18 18 20 22 24 26 25 22 26 28 15
5 7 6 8 9 8 7 10 14 17 21 24 24 27 26 24 22 19 15 12 9 7 6 6 7 7 9 9 10 7 9 11
9 10 10 10 8 8 10 13 16 19 23 25 29 29 27 25 20 13 9 4 2 2 5 6 7 8 9 8 10 9 9 8
9 10 12 11 11 13 13 15 18 22 24 28 28 27 24 18 10 7 5 4 4 4 6 4 8 9 8 8 5 4 6 5
Wind_Direction
138 134 145 125 99 75 6 7 14 24 19 9 2 353 344 348 357 346 341 346 349 351 350 345 343 340 341 344 341 339 336 307
152 152 144 151 166 284 260 275 331 5 4 353 346 354 349 347 6 326 328 330 331 335 336 333 330 327 323 324 328 338 309 291
181 187 173 176 209 254 324 335 334 350 352 338 348 324 333 343 317 329 328 325 325 325 326 328 330 329 327 330 348 315 308 292
197 196 195 202 233 242 261 267 281 289 314 317 325 319 309 312 308 318 319 317 318 319 317 318 335 304 305 332 312 308 308 303
202 207 208 229 262 271 272 279 288 289 293 303 308 319 318 318 313 314 313 312 316 314 311 309 303 301 296 293 289 293 286 284
211 211 213 230 254 275 283 275 280 292 306 306 307 311 310 312 313 314 313 313 309 309 306 303 302 297 291 287 283 281 278 276
219 213 213 234 251 266 272 271 285 293 302 299 294 300 303 307 307 308 307 308 306 304 302 300 297 295 289 281 278 272 264 260
222 212 207 216 223 237 256 278 291 299 303 306 299 296 300 303 303 302 299 298 295 291 292 289 286 284 281 272 267 265 258 251
217 206 205 208 227 242 245 255 272 282 296 303 295 292 297 296 299 299 300 295 289 286 282 278 274 272 270 264 260 258 250 239
218 205 199 209 227 241 254 260 260 276 290 293 295 295 293 294 295 295 295 292 291 288 284 278 274 275 273 268 263 259 252 240
207 197 199 214 238 252 265 268 275 281 291 302 304 303 297 291 289 287 287 283 280 276 275 272 273 270 269 266 262 261 258 256
180 185 188 237 266 285 283 288 290 291 293 300 310 308 304 296 292 290 288 282 280 276 271 270 267 270 269 263 256 253 250 248
140 140 61 58 326 317 293 295 295 303 316 330 331 327 324 315 304 298 295 288 283 278 273 268 266 261 265 261 258 253 248 244
96 87 63 48 13 342 326 328 326 324 329 327 332 333 328 318 310 304 299 293 286 280 278 273 266 258 254 258 262 258 239 240
74 72 67 55 40 11 346 322 315 316 321 323 326 327 323 314 307 299 294 291 287 283 278 274 271 263 250 239 262 247 254 244
75 69 55 35 21 5 359 345 326 324 323 320 319 317 314 310 304 300 294 289 287 286 285 280 278 274 266 256 246 265 272 260
54 38 29 17 7 6 348 338 331 324 320 316 312 314 313 310 307 303 297 293 290 286 284 277 273 271 273 271 271 253 252 257
28 5 359 1 6 1 350 333 330 327 326 324 323 320 317 313 310 305 300 303 311 320 341 3 353 345 322 311 313 330 298 282
356 352 347 347 347 339 333 332 331 329 328 326 322 319 316 315 313 304 299 313 353 33 76 62 36 18 7 5 358 359 351 349
333 332 332 334 332 337 335 334 332 328 326 322 317 313 312 311 303 296 292 296 310 336 16 45 9 350 340 315 328 354 1 352
Height
841 841 841 841 842 842 844 843 843 843 842 842 842 842 842 842 841 841 841 840 840 839 837 836 835 834 833 832 831 830 829 829
841 844 843 844 844 844 844 843 843 842 842 842 843 843 843 842 842 841 841 839 839 838 837 836 835 834 833 832 831 830 829 828
843 844 843 844 846 846 845 844 844 844 844 843 843 845 844 843 842 841 840 839 838 837 836 835 834 832 831 830 830 830 829 828
842 843 843 843 845 846 846 846 845 845 845 845 845 843 843 842 841 840 839 838 837 835 834 834 833 833 832 829 830 829 828 827
840 843 843 845 846 845 845 845 845 845 845 844 844 843 843 843 842 842 841 838 838 836 835 834 833 832 831 830 828 827 826 825
840 842 843 844 845 844 844 844 845 845 845 845 845 844 843 843 842 841 840 838 837 836 834 833 831 830 830 828 827 826 825 824
838 840 842 843 843 843 844 844 844 844 845 844 844 843 842 842 841 839 838 837 836 834 833 831 830 829 828 827 826 825 824 822
835 838 839 841 842 842 843 843 843 844 844 844 844 843 842 841 839 837 836 834 833 832 830 829 827 826 825 824 823 823 821 820
833 836 838 839 841 841 842 842 843 844 843 842 842 841 840 839 837 836 834 832 830 828 827 826 824 822 821 820 819 819 818 817
831 833 836 839 840 841 842 842 842 842 841 840 839 838 838 837 835 832 830 829 828 826 825 823 821 820 818 817 816 815 814 814
829 834 836 838 839 840 840 840 840 840 839 838 837 836 835 833 830 827 826 824 822 820 818 818 816 815 814 812 811 811 810 810
831 834 836 838 839 839 839 839 839 838 837 835 834 833 831 829 827 824 822 820 818 816 813 812 811 810 807 804 804 804 803 803
832 834 835 837 838 839 838 837 836 836 836 835 833 831 829 826 824 822 819 816 813 811 809 806 804 803 803 799 796 796 797 796
835 835 836 837 837 838 838 838 836 835 834 832 830 827 825 823 821 818 816 812 809 806 805 801 797 796 794 793 787 785 784 787
836 837 837 838 838 838 837 836 834 832 831 829 827 824 821 820 816 813 810 807 802 799 797 794 790 788 787 786 777 772 774 774
838 839 839 839 838 838 837 834 833 831 828 826 824 822 818 814 811 807 803 800 796 792 790 789 788 782 780 776 775 773 768 765
841 841 840 839 838 837 836 834 832 829 827 823 820 815 813 809 805 802 798 794 790 786 784 783 781 779 777 772 770 767 768 769
841 840 839 838 836 835 834 833 830 827 824 820 815 811 807 803 799 796 793 789 788 786 785 782 781 780 779 776 772 771 768 766
839 838 837 836 834 833 831 829 827 824 821 816 812 806 802 798 796 793 790 788 786 785 784 784 783 782 783 780 779 777 776 774
839 837 834 833 832 830 828 826 823 821 818 815 810 804 799 796 793 792 790 788 787 785 783 783 782 782 781 782 780 778 778 778